Starlink 11736

operational
NORAD ID: 64317 Int'l Des: 2025-124 Owner: SPXS Country: US Constellation: starlink
LEOCIRCULAR

Starlink 11736について

説明を読み込み中...

リアルタイム位置

3D地球を読み込み中...

次回通過

高度履歴

Altitude vs Time

uPlot chart will show altitude changes over time

軌道要素

1 64317U 25124A 25261.26832458 .00190494 00000-0 14501-2 0 9999
2 64317 42.9989 348.8180 0001301 271.7284 88.3435 15.70908134 15715
Epoch: Sep 18, 2025 • Age: 20 hours

現在のステータス

高度 354.8 km
速度 7.70 km/s
衛星直下点 16.32°N, 31.91°W
打ち上げ日 Jun 10, 2025
運用期間 0.2 years
タイプ internet

技術仕様

分類 Payload
質量 960.00 kg
乾燥質量 910.00 kg
総質量 960.00 kg
長さ 0.30 m
直径 4.10 m
スパン 29.00 m
形状 Box + pan
製造者 SPXS
バスタイプ Starlink V2MD
フェーズステータス In Orbit
所有者/国 SPXS/US

大規模コンステレーション

Loading constellations...